MST,Max TemperatureF,Mean TemperatureF,Min TemperatureF,Max Dew PointF,MeanDew PointF,Min DewpointF,Max Humidity, Mean Humidity, Min Humidity, Max Sea Level PressureIn, Mean Sea Level PressureIn, Min Sea Level PressureIn, Max VisibilityMiles, Mean VisibilityMiles, Min VisibilityMiles, Max Wind SpeedMPH, Mean Wind SpeedMPH, Max Gust SpeedMPH,PrecipitationIn, CloudCover, Events, WindDirDegrees
2012-11-1,66,48,31,18,13,6,54,29,11,30.37,30.25,30.16,10,10,10,18,6,24,0.00,0,,248
2012-11-2,58,50,41,19,8,0,40,19,10,30.30,30.21,30.17,10,10,2,18,7,26,0.00,0,,243
2012-11-3,61,44,27,18,13,8,65,33,12,30.37,30.32,30.25,10,10,5,18,4,18,0.00,0,,257
2012-11-4,59,44,28,21,16,11,52,35,19,30.47,30.40,30.34,10,10,7,17,4,29,0.00,0,,285
2012-11-5,64,46,29,26,22,20,71,43,19,30.48,30.42,30.33,10,10,10,17,5,25,0.00,0,,288
2012-11-6,67,49,31,24,19,14,65,36,13,30.50,30.42,30.34,10,10,10,12,5,,0.00,0,,262
2012-11-7,69,50,32,16,12,-4,49,27,6,30.43,30.31,30.17,10,10,10,22,9,32,0.00,0,,284
2012-11-8,62,54,47,21,16,13,31,22,15,30.17,30.05,30.00,10,10,10,23,13,36,0.00,0,,192
2012-11-9,60,50,41,38,26,14,89,43,22,30.00,29.92,29.82,10,10,10,26,12,38,0.00,4,,195
2012-11-10,43,34,25,34,18,1,85,54,33,29.83,29.71,29.61,10,10,0,30,11,40,0.00,5,,237
2012-11-11,29,24,20,15,4,-1,67,43,31,30.30,30.04,29.82,10,9,1,24,13,40,0.00,4,,257
2012-11-12,43,28,14,7,1,-4,49,31,18,30.44,30.38,30.30,10,10,10,20,9,28,0.00,0,,261
2012-11-13,49,36,24,14,11,7,52,37,23,30.40,30.34,30.29,10,10,10,22,10,26,0.00,0,,297
2012-11-14,55,38,22,13,3,-8,58,29,7,30.40,30.31,30.25,10,10,10,23,8,32,0.00,0,,280
2012-11-15,50,36,22,26,11,0,78,40,16,30.47,30.40,30.31,10,10,10,16,5,22,0.00,0,,144
2012-11-16,54,38,23,21,14,8,83,43,16,30.46,30.35,30.27,10,10,7,18,6,25,0.00,0,,276
2012-11-17,57,43,29,21,17,13,55,38,21,30.32,30.26,30.19,10,10,10,16,5,26,0.00,0,,234
2012-11-18,55,44,33,25,22,18,63,43,23,30.30,30.22,30.17,10,10,5,22,7,30,0.00,1,,235
2012-11-19,57,44,30,22,16,7,59,35,14,30.42,30.37,30.30,10,10,10,18,7,25,0.00,0,,251
2012-11-20,60,44,29,16,13,9,53,30,13,30.45,30.37,30.31,10,10,10,14,8,20,0.00,0,,271
2012-11-21,59,44,30,15,10,2,48,27,13,30.33,30.24,30.16,10,10,10,21,11,29,0.00,0,,262
2012-11-22,60,47,33,24,14,3,65,28,14,30.52,30.30,30.15,10,10,10,25,14,34,0.00,0,,223
2012-11-23,57,39,21,22,14,8,76,40,14,30.59,30.51,30.45,10,10,10,14,6,20,0.00,0,,260
2012-11-24,61,46,31,10,7,3,38,23,10,30.46,30.30,30.20,10,10,10,25,13,36,0.00,0,,290
2012-11-25,57,43,29,8,5,0,37,23,10,30.21,30.10,29.99,10,10,10,26,9,37,0.00,0,,285
2012-11-26,54,38,21,22,12,-1,87,45,11,30.35,30.24,30.10,10,10,10,17,5,30,0.00,0,,105
2012-11-27,55,36,18,18,-2,-11,89,25,7,30.41,30.36,30.31,10,10,10,28,9,44,0.00,0,,276
2012-11-28,56,40,23,14,3,-4,32,22,12,30.44,30.35,30.27,10,10,10,25,10,32,0.00,0,,260
2012-11-29,56,48,39,23,19,10,45,33,18,30.28,30.23,30.18,10,10,10,22,13,33,0.00,0,,227
2012-11-30,59,44,30,22,18,14,59,37,17,30.28,30.17,30.09,10,10,10,24,9,31,0.00,0,,251